Perry, FL

6:25 AM EST on January 18, 2017 (GMT -0500)
Perry

Weather History for K40J - September, 2013

Change the Weather History Date:

Tuesday, September 3, 2013

  Actual Average (KVLD) Record (KVLD)
Temperature  
Mean Temperature 80 °F -  
Max Temperature 91 °F 87 °F 96 °F (2011)
Min Temperature 69 °F 68 °F 64 °F (1999)
Cooling Degree Days 14    
Growing Degree Days 30 (Base 50)    
Moisture  
Dew Point 72 °F    
Average Humidity 80    
Maximum Humidity 100    
Minimum Humidity 57    
Precipitation  
Precipitation 0.01 in - - ()
Sea Level Pressure  
Sea Level Pressure 29.97 in    
Wind  
Wind Speed 3 mph (WSW)    
Max Wind Speed 12 mph    
Max Gust Speed -    
Visibility 9 miles    
Events Thunderstorm    
Averages and records for this station are not official NWS values.
T = Trace of Precipitation, MM = Missing Value Source: NWS Daily Summary

Daily Weather History Graph

Daily Weather History Graph

Search for Another Location

Airport or City:

Trip Planner

Search our weather history database for the weather conditions in past years. The results will help you decide how hot, cold, wet, or windy it might be!

Date:

Astronomy

Sep. 03, 2013 Rise Set
Actual Time 7:12 AM EDT 7:54 PM EDT
Civil Twilight 6:48 AM EDT 8:18 PM EDT
Nautical Twilight 6:19 AM EDT 8:46 PM EDT
Astronomical Twilight 5:50 AM EDT 9:16 PM EDT
Moon 5:29 AM EDT (9/3) 6:39 PM EDT (9/3)
Length of Visible Light 13h 30m
Length of Day
12h 41m
Waning Crescent, 3% of the Moon is Illuminated
Sep 3
Waning Crescent
Sep 5
New
Sep 12
First Quarter
Sep 19
Full
Sep 26
Last Quarter

Hourly Weather History & Observations

Time (EDT) Temp. Heat Index Dew Point Humidity Pressure Visibility Wind Dir Wind Speed Gust Speed Precip Events Conditions
12:15 AM 73.4 °F - 71.6 °F 94% 29.96 in 10.0 mi WNW 3.5 mph - N/A   Clear
12:35 AM 73.4 °F - 71.6 °F 94% 29.96 in 10.0 mi West 3.5 mph - N/A   Clear
12:53 AM 75.0 °F - 71.1 °F 87% 29.94 in - NW 3.5 mph - N/A   Unknown
12:55 AM 73.4 °F - 69.8 °F 88% 29.96 in 10.0 mi NW 3.5 mph - N/A   Clear
1:15 AM 73.4 °F - 69.8 °F 88% 29.96 in 10.0 mi Calm Calm - N/A   Clear
1:35 AM 73.4 °F - 69.8 °F 88% 29.95 in 7.0 mi Calm Calm - N/A   Clear
1:53 AM 75.0 °F - 70.0 °F 84% 29.93 in - Calm Calm - 0.01 in   Unknown
1:55 AM 73.4 °F - 69.8 °F 88% 29.95 in 10.0 mi Calm Calm - N/A   Clear
2:15 AM 73.4 °F - 69.8 °F 88% 29.94 in 10.0 mi Calm Calm - N/A   Clear
2:35 AM 71.6 °F - 69.8 °F 94% 29.94 in 10.0 mi Calm Calm - N/A   Clear
2:53 AM 73.0 °F - 69.1 °F 87% 29.92 in - Calm Calm - N/A   Unknown
2:55 AM 71.6 °F - 69.8 °F 94% 29.93 in 10.0 mi Calm Calm - N/A   Clear
3:15 AM 71.6 °F - 69.8 °F 94% 29.93 in 7.0 mi Calm Calm - N/A   Clear
3:35 AM 71.6 °F - 69.8 °F 94% 29.94 in 7.0 mi Calm Calm - N/A   Clear
3:53 AM 73.0 °F - 70.0 °F 90% 29.92 in - Calm Calm - N/A   Unknown
3:55 AM 71.6 °F - 69.8 °F 94% 29.94 in 7.0 mi Calm Calm - N/A   Clear
4:15 AM 71.6 °F - 69.8 °F 94% 29.94 in 7.0 mi Calm Calm - N/A   Clear
4:35 AM 71.6 °F - 69.8 °F 94% 29.95 in 7.0 mi Calm Calm - N/A   Clear
4:53 AM 72.0 °F - 69.1 °F 91% 29.93 in - Calm Calm - N/A   Unknown
4:55 AM 71.6 °F - 69.8 °F 94% 29.94 in 5.0 mi Calm Calm - N/A   Clear
5:15 AM 71.6 °F - 69.8 °F 94% 29.95 in 5.0 mi Calm Calm - N/A   Clear
5:35 AM 71.6 °F - 69.8 °F 94% 29.95 in 5.0 mi Calm Calm - N/A Thunderstorm Clear
5:53 AM 73.0 °F - 70.0 °F 90% 29.94 in - Calm Calm - N/A   Unknown
5:55 AM 71.6 °F - 69.8 °F 94% 29.95 in 5.0 mi Calm Calm - N/A   Clear
6:15 AM 69.8 °F - 69.8 °F 100% 29.96 in 5.0 mi Calm Calm - N/A   Clear
6:35 AM 69.8 °F - 69.8 °F 100% 29.96 in 5.0 mi North 3.5 mph - N/A   Clear
6:53 AM 73.0 °F - 70.0 °F 90% 29.95 in - Calm Calm - N/A   Unknown
6:55 AM 71.6 °F - 69.8 °F 94% 29.97 in 7.0 mi Calm Calm - N/A   Clear
7:15 AM 71.6 °F - 69.8 °F 94% 29.98 in 4.0 mi Calm Calm - N/A   Clear
7:35 AM 71.6 °F - 69.8 °F 94% 29.98 in 4.0 mi Calm Calm - N/A   Clear
7:53 AM 73.9 °F - 71.1 °F 91% 29.97 in - Calm Calm - N/A   Unknown
7:55 AM 71.6 °F - 69.8 °F 94% 29.98 in 4.0 mi Calm Calm - N/A Thunderstorm Clear
8:15 AM 73.4 °F - 71.6 °F 94% 29.99 in 5.0 mi Calm Calm - N/A Thunderstorm Clear
8:35 AM 75.2 °F - 73.4 °F 94% 29.99 in 7.0 mi Calm Calm - N/A Thunderstorm Clear
8:53 AM 79.0 °F - 73.9 °F 84% 29.98 in - WNW 3.5 mph - N/A   Unknown
8:55 AM 77.0 °F - 73.4 °F 89% 29.99 in 10.0 mi WNW 3.5 mph - N/A   Clear
9:15 AM 77.0 °F - 73.4 °F 89% 30.00 in 10.0 mi West 4.6 mph - N/A Thunderstorm Clear
9:35 AM 78.8 °F - 75.2 °F 89% 30.00 in 10.0 mi Calm Calm - N/A Thunderstorm Clear
9:53 AM 82.9 °F 90.2 °F 75.0 °F 77% 29.99 in - West 5.8 mph - N/A   Unknown
9:55 AM 80.6 °F 86.2 °F 75.2 °F 84% 30.00 in 10.0 mi West 5.8 mph - N/A   Scattered Clouds
10:15 AM 82.4 °F 89.5 °F 75.2 °F 79% 30.01 in 10.0 mi WNW 4.6 mph - N/A   Scattered Clouds
10:35 AM 82.4 °F 88.2 °F 73.4 °F 74% 30.01 in 10.0 mi NW 5.8 mph - N/A   Scattered Clouds
10:53 AM 86.0 °F 95.1 °F 75.0 °F 70% 30.00 in - Variable 4.6 mph - N/A   Unknown
10:55 AM 84.2 °F 90.9 °F 73.4 °F 70% 30.01 in 10.0 mi NW 5.8 mph - N/A   Scattered Clouds
11:15 AM 82.4 °F 88.2 °F 73.4 °F 74% 30.02 in 10.0 mi Calm Calm - N/A   Scattered Clouds
11:35 AM 84.2 °F 90.9 °F 73.4 °F 70% 30.02 in 10.0 mi WNW 4.6 mph - N/A   Mostly Cloudy
11:53 AM 87.1 °F 95.4 °F 73.9 °F 65% 30.01 in - NW 5.8 mph - N/A   Unknown
11:55 AM 86.0 °F 91.8 °F 71.6 °F 62% 30.02 in 10.0 mi NNW 5.8 mph - N/A   Mostly Cloudy
12:15 PM 86.0 °F 93.4 °F 73.4 °F 66% 30.01 in 10.0 mi SW 4.6 mph - N/A   Scattered Clouds
12:35 PM 86.0 °F 91.8 °F 71.6 °F 62% 30.01 in 10.0 mi West 6.9 mph - N/A   Scattered Clouds
12:53 PM 87.1 °F 95.4 °F 73.9 °F 65% 29.99 in - WSW 4.6 mph - N/A   Unknown
12:55 PM 86.0 °F 93.4 °F 73.4 °F 66% 30.00 in 10.0 mi WSW 3.5 mph - N/A   Scattered Clouds
1:15 PM 86.0 °F 93.4 °F 73.4 °F 66% 30.00 in 10.0 mi SW 3.5 mph - N/A   Scattered Clouds
1:35 PM 86.0 °F 91.8 °F 71.6 °F 62% 29.99 in 10.0 mi SW 6.9 mph - N/A   Mostly Cloudy
1:53 PM 88.0 °F 96.5 °F 73.9 °F 63% 29.96 in - WSW 8.1 mph - N/A   Unknown
1:55 PM 87.8 °F 95.6 °F 73.4 °F 62% 29.98 in 10.0 mi WSW 6.9 mph - N/A   Mostly Cloudy
2:15 PM 87.8 °F 93.8 °F 71.6 °F 58% 29.97 in 10.0 mi SSW 3.5 mph - N/A   Scattered Clouds
2:35 PM 87.8 °F 93.8 °F 71.6 °F 58% 29.97 in 10.0 mi WSW 8.1 mph - N/A   Scattered Clouds
2:53 PM 90.0 °F 97.9 °F 73.0 °F 57% 29.95 in - SW 9.2 mph - N/A   Unknown
2:55 PM 87.8 °F 93.8 °F 71.6 °F 58% 29.96 in 10.0 mi West 8.1 mph - N/A   Scattered Clouds
3:15 PM 87.8 °F 93.8 °F 71.6 °F 58% 29.95 in 10.0 mi SW 8.1 mph - N/A   Scattered Clouds
3:35 PM 87.8 °F 95.6 °F 73.4 °F 62% 29.94 in 10.0 mi SW 8.1 mph - N/A   Scattered Clouds
3:53 PM 89.1 °F 97.0 °F 73.0 °F 59% 29.91 in - South 8.1 mph - N/A   Unknown
3:55 PM 86.0 °F 91.8 °F 71.6 °F 62% 29.93 in 10.0 mi SSW 8.1 mph - N/A   Scattered Clouds
4:15 PM 87.8 °F 93.8 °F 71.6 °F 58% 29.94 in 10.0 mi SSW 8.1 mph - N/A   Scattered Clouds
4:35 PM 87.8 °F 95.6 °F 73.4 °F 62% 29.94 in 10.0 mi SW 8.1 mph - N/A   Scattered Clouds
4:53 PM 88.0 °F 95.6 °F 73.0 °F 61% 29.93 in - SW 8.1 mph - N/A   Unknown
4:55 PM 86.0 °F 91.8 °F 71.6 °F 62% 29.95 in 10.0 mi WSW 8.1 mph - N/A   Clear
5:15 PM 86.0 °F 93.4 °F 73.4 °F 66% 29.95 in 10.0 mi SSW 11.5 mph - N/A   Scattered Clouds
5:35 PM 86.0 °F 93.4 °F 73.4 °F 66% 29.95 in 10.0 mi SW 6.9 mph - N/A   Scattered Clouds
5:53 PM 87.1 °F 95.4 °F 73.9 °F 65% 29.94 in - SW 10.4 mph - N/A   Unknown
5:55 PM 86.0 °F 91.8 °F 71.6 °F 62% 29.95 in 10.0 mi SW 9.2 mph - N/A   Clear
6:15 PM 82.4 °F 87.2 °F 71.6 °F 70% 29.95 in 10.0 mi WSW 10.4 mph - N/A   Scattered Clouds
6:35 PM 82.4 °F 88.2 °F 73.4 °F 74% 29.95 in 10.0 mi WSW 6.9 mph - N/A   Clear
6:53 PM 84.0 °F 91.2 °F 73.9 °F 72% 29.93 in - SSW 6.9 mph - N/A   Unknown
6:55 PM 82.4 °F 88.2 °F 73.4 °F 74% 29.94 in 10.0 mi SW 6.9 mph - N/A   Clear
7:15 PM 80.6 °F 85.4 °F 73.4 °F 79% 29.94 in 10.0 mi SW 4.6 mph - N/A   Clear
7:35 PM 80.6 °F 85.4 °F 73.4 °F 79% 29.95 in 10.0 mi Calm Calm - N/A   Clear
7:53 PM 82.0 °F 88.6 °F 75.0 °F 79% 29.94 in - Calm Calm - N/A   Unknown
7:55 PM 80.6 °F 85.4 °F 73.4 °F 79% 29.95 in 10.0 mi Calm Calm - N/A   Clear
8:15 PM 78.8 °F - 73.4 °F 83% 29.95 in 10.0 mi Calm Calm - N/A   Clear
8:35 PM 78.8 °F - 73.4 °F 83% 29.95 in 10.0 mi South 4.6 mph - N/A   Clear
8:53 PM 81.0 °F 86.2 °F 73.9 °F 79% 29.96 in - Calm Calm - N/A   Unknown
8:55 PM 78.8 °F - 73.4 °F 83% 29.97 in 10.0 mi Calm Calm - N/A   Clear
9:15 PM 78.8 °F - 73.4 °F 83% 29.99 in 10.0 mi Calm Calm - N/A   Clear
9:35 PM 78.8 °F - 73.4 °F 83% 29.99 in 10.0 mi Calm Calm - N/A   Clear
9:53 PM 80.1 °F 85.1 °F 75.0 °F 85% 29.98 in - Calm Calm - N/A   Unknown
9:55 PM 78.8 °F - 73.4 °F 83% 30.00 in 10.0 mi Calm Calm - N/A   Clear
10:15 PM 78.8 °F - 73.4 °F 83% 30.00 in 10.0 mi Calm Calm - N/A   Clear
10:35 PM 78.8 °F - 73.4 °F 83% 30.00 in 10.0 mi Calm Calm - N/A   Clear
10:53 PM 79.0 °F - 73.9 °F 84% 29.99 in - South 3.5 mph - N/A   Unknown
10:55 PM 78.8 °F - 73.4 °F 83% 30.00 in 10.0 mi South 3.5 mph - N/A   Clear
11:15 PM 77.0 °F - 73.4 °F 89% 30.00 in 10.0 mi Calm Calm - N/A   Clear
11:35 PM 77.0 °F - 73.4 °F 89% 30.00 in 10.0 mi Calm Calm - N/A   Clear
11:53 PM 79.0 °F - 73.9 °F 84% 29.98 in - Calm Calm - N/A   Unknown
11:55 PM 77.0 °F - 73.4 °F 89% 30.00 in 10.0 mi Calm Calm - N/A   Clear